This is the latest recevied weather packets stored in our database for station/object ED5YAL-15. If no packets are shown the sender has not sent any weather packets the latest 10 day(s).
| Time | Temp. | Humidity | Pressure | Rain* | Wind** | Luminosity | Snow |
|---|---|---|---|---|---|---|---|
| 1777842091 | 15.56° C | 61% | 1018.2 hPa | - | - | - | - |
| 1777841191 | 15.56° C | 61% | 1018.4 hPa | - | - | - | - |
| 1777840290 | 15.56° C | 60% | 1017.9 hPa | - | - | - | - |
| 1777839389 | 17.78° C | 60% | 1017.8 hPa | - | - | - | - |
| 1777838507 | 15.56° C | 60% | 1017.7 hPa | - | - | - | - |
| 1777837639 | 16.11° C | 60% | 1017.6 hPa | - | - | - | - |
| 1777837606 | 16.11° C | 60% | 1017.6 hPa | - | - | - | - |
| 1777836706 | 16.11° C | 59% | 1017.4 hPa | - | - | - | - |
| 1777835805 | 16.67° C | 59% | 1017.4 hPa | - | - | - | - |
| 1777834904 | 16.67° C | 59% | 1017.3 hPa | - | - | - | - |
| 1777834003 | 17.78° C | 58% | 1017.3 hPa | - | - | - | - |
| 1777833105 | 18.89° C | 59% | 1016.9 hPa | - | - | - | - |
| 1777832201 | 18.89° C | 59% | 1016.8 hPa | - | - | - | - |
| 1777831301 | 18.89° C | 60% | 1016.8 hPa | - | - | - | - |
| 1777830400 | 18.33° C | 59% | 1016.7 hPa | - | - | - | - |
| 1777829499 | 18.33° C | 59% | 1016.8 hPa | - | - | - | - |
| 1777828598 | 18.33° C | 60% | 1016.7 hPa | - | - | - | - |
| 1777827697 | 18.33° C | 60% | 1016.7 hPa | - | - | - | - |
| 1777826797 | 18.33° C | 59% | 1016.7 hPa | - | - | - | - |
| 1777825896 | 18.33° C | 60% | 1016.8 hPa | - | - | - | - |
| 1777824995 | 18.33° C | 59% | 1016.7 hPa | - | - | - | - |
| 1777824094 | 18.33° C | 60% | 1016.8 hPa | - | - | - | - |
| 1777823193 | 17.78° C | 60% | 1017 hPa | - | - | - | - |
| 1777822292 | 18.33° C | 60% | 1017 hPa | - | - | - | - |
| 1777821392 | 18.33° C | 60% | 1017.1 hPa | - | - | - | - |
* Rain since midnight (hover to see other rain measurements)
** Current wind speed in m/s (hover to see current wind gust speed)